KC0KLG Weather Reports


time (UTC)temp
F
wind
direction
speed
knots
gust
knots
rain 1hr
in
rain 24hr
in
rain mn
in
humidity
%
barometer
mb
20260508014551 65 298 0.0 6.1 0.00 0.02 0.02 37 1013.0
20260508014540 65 298 0.0 6.1 0.00 0.02 0.02 38 1009.7
20260508013047 66 247 3.5 10.4 0.00 0.02 0.02 33 1013.0
20260508013038 66 252 3.5 10.4 0.00 0.02 0.02 34 1009.6
20260508011546 67 281 1.7 9.6 0.00 0.02 0.02 33 1012.9
20260508011525 67 236 1.7 9.6 0.00 0.02 0.02 34 1009.5
20260508010047 67 265 1.7 7.0 0.00 0.02 0.02 37 1013.0
20260508010010 67 284 1.7 7.0 0.00 0.02 0.02 37 1009.6
20260508004550 67 5 1.7 7.0 0.00 0.02 0.02 42 1013.0
20260508004508 67 355 1.7 7.0 0.00 0.02 0.02 44 1009.6
20260508003052 64 349 0.9 2.6 0.00 0.02 0.02 48 1009.7
20260508003046 64 349 0.9 2.6 0.00 0.02 0.02 48 1013.1
20260508001553 65 306 1.7 6.1 0.00 0.02 0.02 43 1009.7
20260508001547 66 252 1.7 6.1 0.00 0.02 0.02 43 1013.1
20260508000050 64 9 1.7 9.6 0.00 0.02 0.02 46 1009.6
20260508000047 64 40 1.7 9.6 0.00 0.02 0.02 45 1013.0
20260507234554 67 205 2.6 9.6 0.00 0.02 0.02 37 1013.0
20260507234532 67 210 3.5 9.6 0.00 0.02 0.02 38 1009.6
20260507233047 68 238 2.6 10.4 0.00 0.02 0.02 38 1013.0
20260507233030 68 231 3.5 10.4 0.00 0.02 0.02 39 1009.6
20260507231552 66 0 0.9 3.5 0.00 0.02 0.02 44 1013.0
20260507231522 66 236 0.9 3.5 0.00 0.02 0.02 45 1009.4
20260507230100 64 245 1.7 3.5 0.00 0.02 0.02 45 1009.6
20260507230049 64 254 1.7 3.5 0.00 0.02 0.02 45 1013.0
20260507224552 64 157 1.7 4.3 0.00 0.02 0.02 49 1009.6
20260507224545 64 135 1.7 4.3 0.00 0.02 0.02 48 1013.1
20260507223051 63 205 0.0 5.2 0.00 0.02 0.02 49 1013.3
20260507223036 63 205 0.0 5.2 0.00 0.02 0.02 49 1009.9
20260507221550 63 0 0.9 4.3 0.00 0.02 0.02 50 1013.4
20260507221532 63 153 0.9 4.3 0.00 0.02 0.02 51 1009.9
20260507220046 62 162 0.0 2.6 0.00 0.02 0.02 57 1013.6
20260507220009 62 162 0.0 1.7 0.00 0.02 0.02 58 1010.1
20260507214601 63 208 0.9 3.5 0.00 0.02 0.02 55 1010.1
20260507214544 63 207 0.0 3.5 0.00 0.02 0.02 54 1013.6
20260507213047 61 344 1.7 7.8 0.00 0.02 0.02 58 1010.4
20260507213043 61 352 1.7 7.8 0.00 0.02 0.02 57 1013.8
20260507211543 63 352 0.9 3.5 0.00 0.02 0.02 50 1014.0
20260507211541 63 346 0.9 3.5 0.00 0.02 0.02 50 1010.6
20260507210042 65 339 2.6 7.8 0.00 0.02 0.02 46 1014.0
20260507210034 65 338 2.6 7.8 0.00 0.02 0.02 47 1010.6
20260507204544 66 44 2.6 7.8 0.00 0.02 0.02 49 1013.9
20260507204515 66 325 2.6 7.8 0.00 0.02 0.02 52 1010.6
20260507203108 64 340 1.7 3.5 0.00 0.02 0.02 53 1010.7
20260507203056 63 5 0.9 7.8 0.00 0.02 0.02 51 1014.2
20260507203000 63 279 0.9 4.3 0.00 0.02 0.02 51 1010.7
20260507201547 63 327 2.6 8.7 0.00 0.02 0.02 51 1014.0
20260507201543 63 259 2.6 8.7 0.00 0.02 0.02 52 1010.8
20260507200049 64 348 2.6 7.0 0.00 0.02 0.02 52 1014.1
20260507200043 64 348 3.5 7.8 0.00 0.02 0.02 53 1010.8
20260507194542 62 277 0.9 3.5 0.00 0.02 0.02 53 1014.2
20260507194513 62 246 0.9 3.5 0.00 0.02 0.02 54 1010.9
20260507193054 61 258 2.6 4.3 0.00 0.02 0.02 55 1011.0
20260507191543 61 287 0.9 6.1 0.00 0.02 0.02 55 1014.3
20260507191539 61 351 0.9 6.1 0.00 0.02 0.02 55 1011.0
20260507190045 62 221 1.7 7.0 0.00 0.02 0.02 52 1014.5
20260507190032 62 215 2.6 6.1 0.00 0.02 0.02 52 1011.2
20260507184545 63 209 0.9 6.1 0.00 0.02 0.02 53 1014.5
20260507184523 63 209 1.7 6.1 0.00 0.02 0.02 53 1011.1
20260507183104 61 221 0.0 5.2 0.00 0.02 0.02 58 1011.2
20260507183046 60 114 0.9 5.2 0.00 0.02 0.02 56 1014.5
20260507181544 59 257 1.7 3.5 0.00 0.02 0.02 56 1014.6
20260507181539 59 257 1.7 3.5 0.00 0.02 0.02 57 1011.2
20260507180046 59 74 1.7 6.1 0.00 0.02 0.02 56 1014.5
20260507180039 59 74 2.6 5.2 0.00 0.02 0.02 57 1011.1
20260507174551 59 291 1.7 7.8 0.00 0.02 0.02 57 1014.4
20260507174519 59 283 1.7 7.8 0.00 0.02 0.02 58 1011.2
20260507173051 59 0 0.9 3.5 0.00 0.02 0.02 58 1014.4
20260507173009 59 241 1.7 3.5 0.00 0.02 0.02 59 1011.2
20260507171610 56 161 0.0 2.6 0.00 0.02 0.02 67 1011.2
20260507171608 56 161 0.0 2.6 0.00 0.02 0.02 66 1014.5
20260507170055 57 147 0.9 4.3 0.00 0.02 0.02 62 1014.5
20260507170043 57 147 0.0 4.3 0.00 0.02 0.02 62 1011.3
20260507164601 56 93 0.9 2.6 0.00 0.02 0.02 64 1014.8
20260507164550 56 345 0.9 2.6 0.00 0.02 0.02 64 1011.6
20260507163046 55 352 0.9 2.6 0.00 0.02 0.02 68 1015.1
20260507163020 55 355 0.9 2.6 0.00 0.02 0.02 68 1011.9
20260507161600 54 344 0.9 2.6 0.00 0.02 0.02 68 1015.2
20260507161525 54 344 0.9 2.6 0.00 0.02 0.02 69 1012.2
20260507160058 55 301 1.7 4.3 0.00 0.02 0.02 67 1012.2
20260507160045 55 301 1.7 7.0 0.00 0.02 0.02 67 1015.2
20260507154552 56 207 1.7 5.2 0.00 0.02 0.02 65 1015.0
20260507154550 56 211 1.7 5.2 0.00 0.02 0.02 66 1011.9
20260507153051 55 244 1.7 6.1 0.00 0.02 0.02 67 1014.9
20260507153042 55 246 0.9 6.1 0.00 0.02 0.02 67 1011.9
20260507151546 54 157 0.0 2.6 0.00 0.02 0.02 74 1014.6
20260507151536 54 157 0.0 2.6 0.00 0.02 0.02 75 1011.7
20260507150049 53 155 0.9 2.6 0.00 0.02 0.02 78 1014.5
20260507150013 53 159 0.9 2.6 0.00 0.02 0.02 77 1011.4
20260507144556 52 164 0.0 1.7 0.00 0.02 0.02 80 1011.5
20260507144551 52 164 0.0 1.7 0.00 0.02 0.02 81 1014.5
20260507143100 49 176 0.0 1.7 0.00 0.02 0.02 92 1011.3
20260507143057 49 176 0.0 1.7 0.00 0.02 0.02 92 1014.3
20260507141554 47 176 0.0 2.6 0.00 0.02 0.02 93 1014.2
20260507141540 47 176 0.0 2.6 0.00 0.02 0.02 93 1011.3
20260507140049 46 176 0.0 1.7 0.00 0.02 0.02 95 1014.2
20260507140022 46 176 0.9 1.7 0.00 0.02 0.02 95 1011.4
20260507134553 45 0 0.0 0.9 0.01 0.02 0.02 96 1014.1
20260507134525 45 160 0.0 0.9 0.01 0.02 0.02 96 1011.4
20260507133102 44 160 0.0 0.9 0.01 0.02 0.02 97 1011.2
20260507133045 44 160 0.0 0.9 0.01 0.02 0.02 96 1013.9
20260507133011 44 160 0.0 0.9 0.01 0.02 0.02 97 1011.4
20260507131607 42 160 0.0 0.9 0.01 0.02 0.02 97 1011.1
20260507131544 42 0 0.0 0.9 0.01 0.02 0.02 96 1013.7
20260507130046 42 0 0.0 1.7 0.01 0.02 0.02 96 1013.6
20260507130036 42 160 0.0 1.7 0.01 0.02 0.02 96 1011.1
20260507124542 41 0 0.0 1.7 0.00 0.01 0.01 95 1013.6
20260507124526 42 160 0.0 1.7 0.00 0.01 0.01 96 1011.1
20260507123047 42 0 0.0 1.7 0.00 0.01 0.01 96 1013.4
20260507123025 42 160 0.0 0.9 0.00 0.01 0.01 96 1010.9
20260507121545 41 160 0.0 0.9 0.00 0.01 0.01 96 1013.3
20260507121512 41 160 0.0 0.9 0.00 0.01 0.01 96 1011.0
20260507120047 41 0 0.0 1.7 0.00 0.01 0.01 95 1013.1
20260507120002 41 160 0.0 1.7 0.00 0.01 0.01 96 1010.9
20260507114556 41 160 0.0 1.7 0.00 0.01 0.01 95 1010.8
20260507114543 41 0 0.0 1.7 0.00 0.01 0.01 95 1013.1
20260507113042 42 0 0.9 1.7 0.00 0.01 0.01 95 1012.9
20260507113034 42 160 0.9 1.7 0.00 0.01 0.01 95 1010.8
20260507111547 42 0 0.0 0.9 0.00 0.01 0.01 95 1012.8
20260507111522 42 160 0.0 0.9 0.00 0.01 0.01 95 1010.8
20260507110100 42 160 0.0 1.7 0.00 0.01 0.01 95 1013.0
20260507110006 42 160 0.0 1.7 0.00 0.01 0.01 95 1011.0
20260507104600 42 160 0.0 1.7 0.00 0.01 0.01 95 1010.9
20260507104547 42 0 0.0 1.7 0.00 0.01 0.01 94 1012.8
20260507104506 42 160 0.0 1.7 0.00 0.01 0.01 95 1010.9
20260507103056 43 160 0.0 1.7 0.00 0.01 0.01 95 1010.9
20260507103045 43 160 0.0 1.7 0.00 0.01 0.01 94 1012.8
20260507101548 44 0 0.0 1.7 0.00 0.01 0.01 94 1012.8
20260507101542 44 160 0.0 1.7 0.00 0.01 0.01 95 1011.0
20260507100043 45 0 0.0 1.7 0.00 0.01 0.01 94 1012.8
20260507100022 45 160 0.0 1.7 0.00 0.01 0.01 94 1011.0
20260507094548 46 160 0.0 3.5 0.00 0.01 0.01 93 1013.0
20260507094505 46 160 0.9 2.6 0.00 0.01 0.01 94 1011.1
20260507093101 47 160 0.0 2.6 0.00 0.01 0.01 94 1010.9
20260507093052 47 0 0.0 3.5 0.00 0.01 0.01 93 1012.8
20260507091607 47 0 0.0 1.7 0.00 0.01 0.01 93 1013.0
20260507090046 47 0 0.0 1.7 0.00 0.01 0.01 93 1013.1
20260507090042 47 227 0.0 1.7 0.00 0.01 0.01 93 1011.2
20260507084544 47 254 0.0 1.7 0.00 0.01 0.01 92 1013.1
20260507084537 47 254 0.9 1.7 0.00 0.01 0.01 93 1011.3
20260507083047 47 129 0.9 1.7 0.01 0.01 0.01 92 1013.0
20260507083020 47 130 0.9 1.7 0.01 0.01 0.01 92 1011.2
20260507081547 47 0 0.0 1.7 0.01 0.01 0.01 91 1013.0
20260507081514 47 144 0.0 0.9 0.01 0.01 0.01 92 1011.2
20260507080058 48 140 0.9 4.3 0.01 0.01 0.01 90 1011.1
20260507080056 48 146 0.0 4.3 0.01 0.01 0.01 89 1012.8
20260507080002 48 148 0.0 4.3 0.01 0.01 0.01 90 1011.1
20260507074547 48 232 1.7 4.3 0.01 0.01 0.01 88 1012.4
20260507073048 48 140 0.9 2.6 0.00 0.00 0.00 85 1012.8
20260507073036 48 140 1.7 2.6 0.00 0.00 0.00 86 1011.3
20260507071547 49 64 0.9 3.5 0.00 0.00 0.00 82 1012.9
20260507071524 49 115 0.0 3.5 0.00 0.00 0.00 82 1011.4
20260507070059 50 233 0.0 2.6 0.00 0.00 0.00 82 1012.9
20260507070016 50 233 0.0 2.6 0.00 0.00 0.00 81 1011.5
20260507064546 53 22 2.6 9.6 0.00 0.00 0.00 68 1012.8
20260507064506 53 5 2.6 9.6 0.00 0.00 0.00 69 1011.5
20260507063059 53 200 1.7 6.1 0.00 0.00 0.00 69 1011.8
20260507063041 53 221 1.7 7.0 0.00 0.00 0.00 68 1013.1
20260507063001 53 175 1.7 6.1 0.00 0.00 0.00 68 1011.8
20260507061544 54 232 1.7 7.0 0.00 0.00 0.00 66 1012.2
20260507060030 51 146 1.7 3.5 0.00 0.00 0.00 74 1011.7
20260507054553 49 125 0.9 2.6 0.00 0.00 0.00 77 1013.1
20260507054514 49 130 0.9 2.6 0.00 0.00 0.00 78 1011.8
20260507053100 49 130 0.0 1.7 0.00 0.00 0.00 77 1011.3
20260507053050 49 130 0.0 1.7 0.00 0.00 0.00 77 1012.5
20260507051546 51 110 0.0 2.6 0.00 0.00 0.00 72 1011.3
20260507050043 53 109 0.0 2.6 0.00 0.00 0.00 71 1012.7
20260507050040 53 109 0.0 2.6 0.00 0.00 0.00 71 1011.4
20260507044548 56 31 5.2 10.4 0.00 0.00 0.00 57 1012.8
20260507044526 56 32 5.2 10.4 0.00 0.00 0.00 58 1011.6
20260507043048 58 17 5.2 17.4 0.00 0.00 0.00 55 1013.0
20260507043008 58 26 5.2 17.4 0.00 0.00 0.00 55 1011.7
20260507041549 58 188 0.0 1.7 0.00 0.00 0.00 62 1010.8
20260507040045 57 188 0.9 1.7 0.00 0.00 0.00 65 1012.0
20260507040043 57 188 0.9 1.7 0.00 0.00 0.00 65 1010.6
20260507034554 58 188 0.0 1.7 0.00 0.00 0.00 62 1012.1
20260507034550 58 188 0.9 1.7 0.00 0.00 0.00 62 1010.8
20260507033046 59 175 0.9 4.3 0.00 0.00 0.00 59 1011.9
20260507033030 59 175 0.0 4.3 0.00 0.00 0.00 60 1010.6
20260507031549 60 167 1.7 3.5 0.00 0.00 0.00 58 1011.9
20260507031513 60 163 0.9 3.5 0.00 0.00 0.00 59 1010.7
20260507030058 61 200 0.0 2.6 0.00 0.00 0.00 57 1010.7
20260507030048 61 200 0.0 3.5 0.00 0.00 0.00 56 1011.8
20260507024557 61 294 0.9 2.6 0.00 0.00 0.00 55 1010.7
20260507024555 61 176 0.9 3.5 0.00 0.00 0.00 55 1011.7
20260507023045 62 198 0.0 2.6 0.00 0.00 0.00 53 1011.7
20260507021549 63 226 0.9 7.0 0.00 0.00 0.00 50 1011.6
20260507021537 63 226 0.9 7.0 0.00 0.00 0.00 51 1010.5
20260507020051 64 255 0.9 3.5 0.00 0.00 0.00 49 1011.5
20260507020026 64 254 0.9 3.5 0.00 0.00 0.00 50 1010.5